DW4360 Weather Reports


time (UTC)temp
C
wind
direction
speed
KPH
gust
KPH
rain 1hr
cm
rain 24hr
cm
rain mn
cm
humidity
%
barometer
mb
20260503010947 23 322 0.0 0.0 0.00 0.00 0.00 55 1009.8
20260503005945 23 322 0.0 0.0 0.00 0.00 0.00 54 1009.8
20260503004944 23 322 0.0 0.0 0.00 0.00 0.00 54 1009.9
20260503003943 24 322 0.0 0.0 0.00 0.00 0.00 53 1009.9
20260503002942 24 335 6.4 0.0 0.00 0.00 0.00 52 1009.9
20260503001941 25 319 1.6 0.0 0.00 0.00 0.00 52 1009.9
20260503000940 25 317 0.0 0.0 0.00 0.00 0.00 52 1010.0
20260502235939 24 321 0.0 0.0 0.00 0.00 0.00 54 1010.1
20260502233937 23 316 0.0 0.0 0.00 0.00 0.00 52 1010.3
20260502232936 23 5 0.0 0.0 0.00 0.00 0.00 55 1010.6
20260502231935 23 338 0.0 0.0 0.00 0.00 0.00 55 1010.6
20260502225940 22 323 0.0 0.0 0.00 0.00 0.00 56 1010.9
20260502224932 22 325 0.0 0.0 0.00 0.00 0.00 56 1011.0
20260502223931 22 327 0.0 0.0 0.00 0.00 0.00 57 1011.2
20260502222930 22 317 0.0 0.0 0.00 0.00 0.00 56 1011.3
20260502221929 22 317 0.0 0.0 0.00 0.00 0.00 57 1011.5
20260502215927 21 36 0.0 0.0 0.00 0.00 0.00 57 1012.0
20260502214926 22 338 6.4 0.0 0.00 0.00 0.00 56 1012.0
20260502213925 22 328 8.0 0.0 0.00 0.00 0.00 55 1012.1
20260502212924 22 324 8.0 0.0 0.00 0.00 0.00 57 1012.3
20260502205921 20 314 4.8 0.0 0.00 0.00 0.00 60 1012.7
20260502204920 20 227 0.0 0.0 0.00 0.00 0.00 62 1013.1
20260502203919 20 243 0.0 0.0 0.00 0.00 0.00 64 1013.3
20260502202918 19 321 4.8 0.0 0.00 0.00 0.00 64 1013.4
20260502201917 18 128 0.0 0.0 0.00 0.00 0.00 64 1013.5
20260502200916 18 140 0.0 0.0 0.00 0.00 0.00 64 1013.6
20260502195915 18 319 0.0 0.0 0.00 0.00 0.00 65 1013.6
20260502194914 18 321 0.0 0.0 0.00 0.00 0.00 65 1013.7
20260502193913 18 316 4.8 0.0 0.00 0.00 0.00 67 1013.8
20260502192912 17 338 6.4 0.0 0.00 0.00 0.00 67 1014.0
20260502191911 17 322 0.0 0.0 0.00 0.00 0.00 69 1014.0
20260502185909 16 321 4.8 0.0 0.00 0.00 0.00 72 1014.4
20260502184908 16 322 0.0 0.0 0.00 0.00 0.00 73 1014.4
20260502183906 15 86 0.0 0.0 0.00 0.00 0.00 75 1014.3
20260502182906 14 316 6.4 0.0 0.00 0.00 0.00 77 1014.4
20260502181905 14 321 0.0 0.0 0.00 0.00 0.00 79 1014.5
20260502180903 13 324 0.0 0.0 0.00 0.00 0.00 79 1014.7
20260502163854 12 308 0.0 0.0 0.00 0.00 0.00 81 1015.0
20260502162853 12 308 3.2 0.0 0.00 0.00 0.00 81 1015.0
20260502161853 12 317 0.0 0.0 0.00 0.00 0.00 82 1015.1
20260502160851 12 316 0.0 0.0 0.00 0.00 0.00 83 1015.0
20260502151846 11 315 0.0 0.0 0.00 0.00 0.00 83 1015.1
20260502150846 11 309 0.0 0.0 0.00 0.00 0.00 83 1015.2
20260502122829 11 313 0.0 0.0 0.00 0.00 0.00 84 1014.9
20260502121828 11 315 0.0 0.0 0.00 0.00 0.00 84 1014.8
20260502120827 11 346 0.0 0.0 0.00 0.00 0.00 84 1014.8
20260502115826 11 302 0.0 0.0 0.00 0.00 0.00 84 1014.8
20260502112823 11 338 0.0 0.0 0.00 0.00 0.00 84 1015.0
20260502111822 11 321 3.2 0.0 0.00 0.00 0.00 84 1014.9
20260502110821 11 302 0.0 0.0 0.00 0.00 0.00 85 1014.7
20260502105820 11 302 0.0 0.0 0.00 0.00 0.00 85 1014.9
20260502102817 11 302 0.0 0.0 0.00 0.00 0.00 84 1015.1
20260502100815 11 302 0.0 0.0 0.00 0.00 0.00 83 1014.5
20260502090809 12 302 0.0 0.0 0.00 0.00 0.00 83 1016.3
20260502070757 13 318 0.0 0.0 0.00 0.00 0.00 75 1015.7
20260502065756 13 319 0.0 0.0 0.00 0.00 0.00 74 1015.7
20260502064754 13 318 0.0 0.0 0.00 0.00 0.00 74 1015.7
20260502063754 13 321 0.0 0.0 0.00 0.00 0.00 74 1015.7
20260502062752 13 321 0.0 0.0 0.00 0.00 0.00 74 1015.7
20260502061751 14 321 0.0 0.0 0.00 0.00 0.00 74 1015.6
20260502055750 14 321 0.0 0.0 0.00 0.00 0.00 72 1015.5
20260502054749 14 323 0.0 0.0 0.00 0.00 0.00 72 1015.4
20260502053747 15 315 0.0 0.0 0.00 0.00 0.00 72 1015.3
20260502052746 15 319 0.0 0.0 0.00 0.00 0.00 71 1015.2
20260502051746 15 318 4.8 0.0 0.00 0.00 0.00 70 1015.2
20260502045744 16 305 0.0 0.0 0.00 0.00 0.00 69 1015.0
20260502044742 16 318 3.2 0.0 0.00 0.00 0.00 68 1015.0
20260502043741 16 322 0.0 0.0 0.00 0.00 0.00 67 1015.0
20260502042740 17 318 0.0 0.0 0.00 0.00 0.00 67 1014.8
20260502041739 17 318 0.0 0.0 0.00 0.00 0.00 66 1014.5
20260502040738 17 318 0.0 0.0 0.00 0.00 0.00 66 1014.4
20260502035738 18 306 0.0 0.0 0.00 0.00 0.00 64 1014.1
20260502034736 18 316 0.0 0.0 0.00 0.00 0.00 64 1013.9
20260502033735 18 341 0.0 0.0 0.00 0.00 0.00 63 1013.8
20260502032734 18 319 0.0 0.0 0.00 0.00 0.00 62 1013.7
20260502031734 19 329 0.0 0.0 0.00 0.00 0.00 62 1013.6
20260502030732 20 324 0.0 0.0 0.00 0.00 0.00 62 1013.5
20260502025732 20 324 0.0 0.0 0.00 0.00 0.00 61 1013.3
20260502024730 20 322 0.0 0.0 0.00 0.00 0.00 60 1013.1
20260502021727 21 319 3.2 0.0 0.00 0.00 0.00 56 1012.7
20260502020726 21 327 0.0 0.0 0.00 0.00 0.00 55 1012.7
20260502014724 22 308 0.0 0.0 0.00 0.00 0.00 55 1012.5
20260502013723 23 329 0.0 0.0 0.00 0.00 0.00 56 1012.6
20260502012722 23 308 0.0 0.0 0.00 0.00 0.00 53 1012.6